sat.trackr.live / text

‹ back to catalog

CAS500-2 RIDESHARE OBJE*

NORAD 68988 · 2026-100J

PAYLOAD ACTIVE UNKNOWN

§ Identity

Operator
Country
TBD
Launch date
2026-05-03
Launch site
AFWTR
Launch vehicle
Mass (kg)
RCS (m²)

External: N2YO · Heavens-Above · Gunter

§ Orbital elements

Epoch: 2026-05-24T22:46:01.935264Z

Period
96.61 min
Inclination
97.7368°
Eccentricity
0.0005460
Mean motion
14.90564168 rev/d
Perigee alt
592.4 km
Apogee alt
600.0 km
Semi-major
6,974.3 km
B*
1.1433e-4
RAAN
42.7971°
Arg perigee
218.1012°
Mean anomaly
141.9820°
Rev number
323

§ Raw data

CAS500-2 RIDESHARE OBJE*1 68988U 26100J   26144.94863351  .00001063  00000+0  11433-3 0  99982 68988  97.7368  42.7971 0005460 218.1012 141.9820 14.90564168  3238

JSON: /api/v1/satellites/68988 · /tle

For live sub-satellite position, see the globe view (requires WebGL).

§ Visibility from observer

Set your observer location to see the next 7 days of passes ≥ 10°. The values pass through the URL so the page stays shareable.

No JS? Fill the form by hand. The geolocation button needs JavaScript.